Regional Weather Roundup
Issued by NWS

Home | Current Version | Previous Version | Text Only | Print | Product List | Glossary On
Versions: 1 2 3 4 5 6 7 8 9 10 11 12 13 14 15 16 17 18 19 20 21 22 23 24 25 26 27
000
ASUS44 KJAN 190410
RWRMS

MISSISSIPPI HOURLY WEATHER ROUNDUP
NATIONAL WEATHER SERVICE JACKSON MS
1100 PM CDT WED OCT 18 2017

NOTE: "FAIR: INDICATES FEW OR NO CLOUDS BELOW 12,000 FEET WITH NO
SIGNIFICANT WEATHER AND/OR OBSTRUCTIONS TO VISIBILITY.

MSZ001>002-007>008-010>013-018>021-025>028-034>036-190500-
NORTHWEST MISSISSIPPI

CITY           SKY/WX    TMP DP  RH WIND       PRES   REMARKS
BATESVILLE     FAIR      48  46  94 CALM      30.22S
CLARKSDALE       N/A     57  50  77 SE7       30.20F
CLEVELAND      FAIR      60  48  64 SE5       30.20S
GREENWOOD      CLEAR     52  49  89 CALM      30.21S
GREENVILLE     CLEAR     57  44  62 SE5       30.19R
OXFORD         FAIR      52  46  82 SE7       30.23S
TUNICA           N/A    N/A N/A N/A S6        30.21S
WINONA         FAIR      49  49  99 CALM      30.23R
$$

MSZ003>006-009-014>017-022>024-029>033-037>039-190500-
NORTHEAST MISSISSIPPI

CITY           SKY/WX    TMP DP  RH WIND       PRES   REMARKS
COLUMBUS AFB   CLEAR     48  48  99 CALM      30.23S
CORINTH        FAIR      48  46  93 SE5       30.22F
GOLDN TRIANGLE CLEAR     52  47  83 CALM      30.24S
STARKVILLE     FAIR      46  45  93 CALM      30.25S
TUPELO         CLEAR     51  46  83 CALM      30.23S
$$

MSZ040-058-190500-
CENTRAL MISSISSIPPI

CITY           SKY/WX    TMP DP  RH WIND       PRES   REMARKS
JACKSON INTL   CLEAR     56  49  77 E6        30.22R
JACKSON HAWKNS CLEAR     57  51  80 E5        30.22S
MADISON        FAIR      59  50  72 CALM      30.21S
MERIDIAN KEY   CLEAR     51  49  92 CALM      30.24S
MERIDIAN NAS   CLEAR     51  48  89 CALM      30.24S
RAYMOND        FAIR      52  50  93 CALM      30.21S
VICKSBURG VKS  CLEAR     59  52  77 SE5       30.22R
$$

MSZ059>079-190500-
SOUTH MISSISSIPPI

CITY           SKY/WX    TMP DP  RH WIND       PRES   REMARKS
HATTIESBURG    CLEAR     54  52  93 CALM      30.23S
LAUREL         FAIR      52  52 100 CALM      30.23F
MCCOMB         CLEAR     61  52  72 E5        30.21S
NATCHEZ        CLEAR     64  56  75 E8        30.20S
PINE BELT      CLEAR     51  49  92 NE3       30.24S
$$

MSZ080>082-190500-
COASTAL MISSISSIPPI

CITY           SKY/WX    TMP DP  RH WIND       PRES   REMARKS
BILOXI         CLEAR     60  54  79 NE5       30.20S
PASCAGOULA     CLEAR     56  53  90 CALM      30.20F
GULFPORT       CLEAR     60  54  80 CALM      30.20S
$$

LAZ007>009-015>016-023>026-190500-
NORTHEAST LOUISIANA

CITY           SKY/WX    TMP DP  RH WIND       PRES   REMARKS
BASTROP        FAIR      53  52  98 CALM      30.19S
TALLULAH/VBURG CLEAR     53  53 100 CALM      30.21R
VIDALIA          N/A    N/A N/A N/A MISG      30.18S
$$




USA.gov is the U.S. government's official web portal to all federal, state and local government web resources and services.